Location: Tortoli
(39.9170°N, 9.6500°E)
Time: 12:14:23
(UTC+02:00)

ISS - Visible Passes

Search period start: 11 May 2021 00:00
Search period end: 21 May 2021 00:00
Orbit: 418 x 421 km, 51.6° (Epoch: 11 May)

Date Brightness Start Highest point End Pass type
(mag) Time Alt. Az. Time Alt. Az. Time Alt. Az.
11 May -0.3 02:04:21 12° N 02:04:21 12° N 02:05:05 10° NNE visible
11 May -0.5 03:39:39 10° NNW 03:41:03 12° N 03:42:26 10° NNE visible
11 May -1.4 05:15:48 10° NW 05:18:44 27° NNE 05:21:41 10° E visible
12 May -0.4 02:52:08 10° NNW 02:53:19 11° N 02:54:30 10° NNE visible
12 May -1.0 04:28:33 10° NNW 04:31:09 20° NNE 04:33:44 10° ENE visible
13 May -0.4 02:05:02 11° NNW 02:05:35 12° N 02:06:50 10° NNE visible
13 May -0.6 03:41:19 10° NNW 03:43:30 16° NNE 03:45:42 10° ENE visible
13 May -3.2 05:17:29 10° NW 05:20:51 64° NE 05:24:11 10° ESE visible
14 May -0.3 01:18:38 12° N 01:18:38 12° N 01:19:25 10° NNE visible
14 May -0.4 02:54:03 10° NNW 02:55:49 13° NNE 02:57:35 10° NE visible
14 May -2.3 04:30:08 10° NW 04:33:21 39° NNE 04:36:33 10° ESE visible
14 May -2.3 21:13:51 10° S 21:16:11 18° SE 21:18:31 10° E visible
14 May -2.9 22:49:27 10° WSW 22:52:44 49° NNW 22:55:37 13° NE visible
15 May -0.5 00:28:12 10° NW 00:30:10 14° NNW 00:32:08 10° NNE visible
15 May -0.3 02:06:43 10° NNW 02:08:06 12° N 02:09:29 10° NNE visible
15 May -1.5 03:42:51 10° NW 03:45:48 27° NNE 03:48:44 10° E visible
15 May -3.3 05:19:30 10° WNW 05:22:42 40° SW 05:25:53 10° SSE visible
15 May -3.8 22:01:54 10° SW 22:05:15 84° NW 22:08:38 10° NE visible
15 May -0.8 23:40:06 10° WNW 23:42:29 18° NNW 23:44:53 10° NNE visible
16 May -0.2 01:19:12 10° NNW 01:20:22 11° N 01:21:32 10° NNE visible
16 May -1.0 02:55:36 10° NNW 02:58:12 20° NNE 03:00:48 10° ENE visible
16 May -3.9 04:31:57 10° NW 04:35:19 73° SW 04:38:40 10° SE visible
16 May -3.7 21:14:35 10° SW 21:17:51 55° SE 21:21:10 10° ENE visible
16 May -1.2 22:52:06 10° W 22:54:51 23° NNW 22:57:38 10° NNE visible
17 May -0.3 00:31:24 10° NNW 00:32:38 12° N 00:33:52 10° NNE visible
17 May -0.7 02:08:21 10° NNW 02:10:33 16° NNE 02:12:45 10° ENE visible
17 May -3.4 03:45:03 14° NW 03:47:53 65° NE 03:51:13 10° ESE visible
17 May -1.9 05:22:33 10° W 05:24:19 14° SW 05:26:03 10° SSW visible
17 May -1.8 22:04:13 10° W 22:07:17 32° NNW 22:10:21 10° NE visible
17 May -0.4 23:43:22 10° NW 23:44:54 12° N 23:46:27 10° NNE visible
18 May -0.5 01:21:06 10° NNW 01:22:52 13° NNE 01:22:56 13° NNE visible
18 May -2.7 21:16:30 10° WSW 21:19:45 49° NNW 21:23:03 10° NE visible
18 May -0.5 22:55:15 10° NW 22:57:12 14° NNW 22:59:09 10° NNE visible
19 May -0.4 00:33:45 10° NNW 00:35:08 12° N 00:36:31 10° NNE visible
19 May -0.7 22:07:09 10° WNW 22:09:31 18° NNW 22:11:54 10° NNE visible
19 May -0.4 23:46:14 10° NNW 23:47:24 11° N 23:48:34 10° NNE visible
20 May -0.5 01:22:38 10° NNW 01:23:17 13° NNW 01:23:17 13° NNW visible
20 May -1.1 21:19:08 10° WNW 21:21:53 23° NNW 21:24:38 10° NNE visible
20 May -0.5 22:58:26 10° NNW 22:59:39 11° N 23:00:53 10° NNE visible
